< < Back
Terminal Aerodrome Forecast


Current Version              Previous Versions:   1  2  3  4  5  6  7  8  9  

Terminal Aerodrome Forecast

886
FTUS42 KGSP 181133
TAFAND
TAF
KAND 181133Z 1812/1912 06003KT P6SM FEW180 SCT250
     FM181700 09004KT P6SM SCT080 BKN250
     FM181900 15004KT P6SM SCT250
     FM190000 25003KT P6SM FEW250
     FM190300 00000KT P6SM SKC=



Latest METAR

054
SAUS70 KWBC 190200 RRH
MTRAND
METAR KAND 190156Z AUTO 21003KT 10SM OVC050 11/02 A3008 RMK AO2 SLP187
T01060022


USA.gov is the U.S. government's official web portal to all federal, state and local government web resources and services.